Date String (YYYY-MM-DD hh:mm:ss) UTC,Instrument flags,absolute air pressure of the measurement (hPa),sample flow rate (lpm),inlet stack bypass flow (lpm),air temperature of the measurement (°C),ambient temperature measured by the external sensor (°C),aerosol sample conditioner tube jacket temperature (°C),OPC LED temperature (°C),internal box temperature (°C),relative humidity of the measurement (%),span deviation,mass concentration of particles derived from Lorenz-Mie calculation of OPC scattering (μg/m³),mass concentration of particles derived from Lorenz-Mie calculation of OPC scattering (μg/m³),mass concentration of particles derived from Lorenz-Mie calculation of OPC scattering (μg/m³)
DateTimeUTC,F1_M11,P_M11,Q1_M11,Q2_M11,T1_M11,T2_M11,T3_M11,T4_M11,T5_M11,U1_M11,ZSPAN_M11,X2_M11,X0_M11,X1_M11
2024-05-30 12:00:00,SystemResetWarning,0829.7,5.01,000.00,030.2,029.3,000.0,038.6,031.9,015.9,0000.0,0003.74,0013.17,0002.56
2024-05-30 12:01:00,SystemResetWarning,0829.7,5.00,000.00,030.2,029.3,000.0,038.6,031.9,016.3,0000.0,0003.69,0013.28,0002.56
2024-05-30 12:02:00,SystemResetWarning,0829.7,5.00,000.00,030.2,029.3,000.0,038.6,031.9,016.6,0000.0,0003.60,0013.09,0002.54
2024-05-30 12:03:00,SystemResetWarning,0829.6,5.00,000.00,030.2,029.3,000.0,038.6,031.9,016.4,0000.0,0003.56,0012.60,0002.54
2024-05-30 12:04:00,SystemResetWarning,0829.7,5.00,000.00,030.2,029.3,000.0,038.6,031.9,016.3,0000.0,0003.56,0012.47,0002.53
2024-05-30 12:05:00,SystemResetWarning,0829.7,5.00,000.00,030.2,029.3,000.0,038.6,031.9,016.2,0000.0,0003.59,0012.04,0002.54
2024-05-30 12:06:00,SystemResetWarning,0829.6,5.00,000.00,030.2,029.3,000.0,038.6,031.9,016.1,0000.0,0003.58,0011.12,0002.54
2024-05-30 12:07:00,SystemResetWarning,0829.7,5.00,000.00,030.2,029.3,000.0,038.6,031.9,016.1,0000.0,0003.56,0010.79,0002.51
2024-05-30 12:08:00,SystemResetWarning,0829.7,4.99,000.00,030.2,029.3,000.0,038.6,031.9,016.1,0000.0,0003.56,0010.31,0002.50
2024-05-30 12:09:00,SystemResetWarning,0829.7,5.00,000.00,030.2,029.3,000.0,038.6,031.9,016.0,0000.0,0003.61,0009.88,0002.51
2024-05-30 12:10:00,SystemResetWarning,0829.7,5.00,000.00,030.2,029.3,000.0,038.6,031.9,015.8,0000.0,0003.62,0009.82,0002.53
2024-05-30 12:11:00,SystemResetWarning,0829.7,5.00,000.00,030.1,029.3,000.0,038.6,031.9,015.6,0000.0,0003.60,0009.78,0002.54
2024-05-30 12:12:00,SystemResetWarning,0829.7,5.00,000.00,030.1,029.3,000.0,038.6,031.9,015.4,0000.0,0003.58,0009.48,0002.53
2024-05-30 12:13:00,SystemResetWarning,0829.7,5.00,000.00,030.1,029.3,000.0,038.6,031.9,015.5,0000.0,0003.63,0009.32,0002.55
2024-05-30 12:14:00,SystemResetWarning,0829.7,5.00,000.00,030.1,029.3,000.0,038.6,031.9,015.4,0000.0,0003.63,0009.41,0002.53
2024-05-30 12:15:00,SystemResetWarning,0829.7,5.00,000.00,030.1,029.2,000.0,038.6,031.9,015.3,0000.0,0003.60,0009.71,0002.52
2024-05-30 12:16:00,SystemResetWarning,0829.7,5.00,000.00,030.1,029.2,000.0,038.6,031.8,015.2,0000.0,0003.54,0009.54,0002.49
2024-05-30 12:17:00,SystemResetWarning,0829.7,5.00,000.00,030.1,029.2,000.0,038.6,031.9,015.2,0000.0,0003.52,0009.52,0002.48
2024-05-30 12:18:00,SystemResetWarning,0829.7,5.00,000.00,030.1,029.2,000.0,038.6,031.9,015.1,0000.0,0003.53,0009.62,0002.50
2024-05-30 12:19:00,SystemResetWarning,0829.7,5.00,000.00,030.1,029.2,000.0,038.6,031.8,015.1,0000.0,0003.54,0009.54,0002.51
2024-05-30 12:20:00,SystemResetWarning,0829.7,5.00,000.00,030.1,029.2,000.0,038.5,031.8,015.3,0000.0,0003.55,0009.37,0002.51
2024-05-30 12:21:00,SystemResetWarning,0829.8,5.00,000.00,030.1,029.2,000.0,038.5,031.8,015.3,0000.0,0003.55,0008.95,0002.49
2024-05-30 12:22:00,SystemResetWarning,0829.8,5.00,000.00,030.1,029.2,000.0,038.5,031.8,015.4,0000.0,0003.57,0009.04,0002.49
2024-05-30 12:23:00,SystemResetWarning,0829.8,5.00,000.00,030.1,029.2,000.0,038.5,031.8,015.8,0000.0,0003.58,0009.30,0002.49
2024-05-30 12:24:00,SystemResetWarning,0829.8,5.00,000.00,030.1,029.2,000.0,038.5,031.7,015.6,0000.0,0003.53,0009.10,0002.47
2024-05-30 12:25:00,SystemResetWarning,0829.8,5.00,000.00,030.1,029.2,000.0,038.5,031.8,015.6,0000.0,0003.53,0008.58,0002.49
2024-05-30 12:26:00,SystemResetWarning,0829.8,5.01,000.00,030.1,029.2,000.0,038.5,031.8,015.6,0000.0,0003.54,0007.96,0002.49
2024-05-30 12:27:00,SystemResetWarning,0829.8,5.00,000.00,030.1,029.2,000.0,038.5,031.8,015.7,0000.0,0003.60,0008.39,0002.49
2024-05-30 12:28:00,SystemResetWarning,0829.8,5.00,000.00,030.1,029.2,000.0,038.5,031.8,015.8,0000.0,0003.65,0008.47,0002.50
2024-05-30 12:29:00,SystemResetWarning,0829.8,4.99,000.00,030.1,029.3,000.0,038.5,031.8,015.8,0000.0,0003.66,0008.58,0002.49
2024-05-30 12:30:00,SystemResetWarning,0829.7,4.99,000.00,030.1,029.3,000.0,038.5,031.8,015.7,0000.0,0003.63,0009.83,0002.47
2024-05-30 12:31:00,SystemResetWarning,0829.8,5.00,000.00,030.1,029.3,000.0,038.5,031.8,015.6,0000.0,0003.57,0010.64,0002.44
2024-05-30 12:32:00,SystemResetWarning,0829.8,5.01,000.00,030.1,029.3,000.0,038.5,031.8,015.6,0000.0,0003.54,0011.92,0002.42
2024-05-30 12:33:00,SystemResetWarning,0829.8,5.01,000.00,030.1,029.3,000.0,038.5,031.8,015.4,0000.0,0003.51,0011.59,0002.42
2024-05-30 12:34:00,SystemResetWarning,0829.8,5.01,000.00,030.1,029.3,000.0,038.5,031.8,015.7,0000.0,0003.51,0011.27,0002.43
2024-05-30 12:35:00,SystemResetWarning,0829.9,4.99,000.00,030.1,029.3,000.0,038.5,031.8,015.9,0000.0,0003.53,0011.34,0002.42
2024-05-30 12:36:00,SystemResetWarning,0829.9,5.00,000.00,030.1,029.3,000.0,038.5,031.9,015.7,0000.0,0003.51,0011.30,0002.39
2024-05-30 12:37:00,SystemResetWarning,0830.0,5.00,000.00,030.1,029.3,000.0,038.5,031.9,015.8,0000.0,0003.51,0011.26,0002.37
2024-05-30 12:38:00,SystemResetWarning,0830.0,5.00,000.00,030.1,029.3,000.0,038.5,031.8,015.9,0000.0,0003.46,0011.03,0002.36
2024-05-30 12:39:00,SystemResetWarning,0830.0,5.00,000.00,030.1,029.3,000.0,038.5,031.8,016.2,0000.0,0003.40,0010.99,0002.34
2024-05-30 12:40:00,SystemResetWarning,0830.0,5.00,000.00,030.1,029.3,000.0,038.5,031.8,016.3,0000.0,0003.38,0010.93,0002.33
2024-05-30 12:41:00,SystemResetWarning,0830.0,4.99,000.00,030.1,029.3,000.0,038.5,031.8,016.3,0000.0,0003.40,0009.97,0002.33
2024-05-30 12:42:00,SystemResetWarning,0830.0,5.00,000.00,030.1,029.3,000.0,038.5,031.9,016.3,0000.0,0003.42,0009.45,0002.35
2024-05-30 12:43:00,SystemResetWarning,0830.0,5.00,000.00,030.1,029.3,000.0,038.5,031.9,016.2,0000.0,0003.44,0008.00,0002.35
2024-05-30 12:44:00,SystemResetWarning,0830.0,5.00,000.00,030.1,029.3,000.0,038.5,031.9,015.8,0000.0,0003.47,0008.26,0002.35
2024-05-30 12:45:00,SystemResetWarning,0830.0,5.00,000.00,030.1,029.3,000.0,038.5,031.8,016.0,0000.0,0003.46,0008.70,0002.35
2024-05-30 12:46:00,SystemResetWarning,0830.0,5.00,000.00,030.1,029.3,000.0,038.5,031.8,016.0,0000.0,0003.44,0008.89,0002.34
2024-05-30 12:47:00,SystemResetWarning,0830.0,4.99,000.00,030.1,029.3,000.0,038.5,031.8,016.1,0000.0,0003.44,0008.92,0002.34
2024-05-30 12:48:00,SystemResetWarning,0830.0,4.99,000.00,030.1,029.3,000.0,038.5,031.9,016.6,0000.0,0003.46,0009.09,0002.35
2024-05-30 12:49:00,SystemResetWarning,0830.0,5.01,000.00,030.1,029.3,000.0,038.5,031.9,016.6,0000.0,0003.49,0009.69,0002.34
2024-05-30 12:50:00,SystemResetWarning,0830.0,5.00,000.00,030.1,029.3,000.0,038.5,031.9,016.8,0000.0,0003.50,0009.58,0002.34
2024-05-30 12:51:00,SystemResetWarning,0830.0,5.01,000.00,030.1,029.3,000.0,038.5,031.9,016.8,0000.0,0003.49,0010.09,0002.34
2024-05-30 12:52:00,SystemResetWarning,0830.0,5.01,000.00,030.1,029.3,000.0,038.5,031.9,017.0,0000.0,0003.48,0011.23,0002.33
2024-05-30 12:53:00,SystemResetWarning,0830.1,5.00,000.00,030.1,029.3,000.0,038.5,031.9,016.9,0000.0,0003.47,0011.19,0002.31
2024-05-30 12:54:00,SystemResetWarning,0830.1,4.99,000.00,030.1,029.3,000.0,038.5,031.9,017.2,0000.0,0003.48,0011.41,0002.32
2024-05-30 12:55:00,SystemResetWarning,0830.1,4.99,000.00,030.1,029.3,000.0,038.5,031.9,017.1,0000.0,0003.48,0012.06,0002.29
2024-05-30 12:56:00,SystemResetWarning,0830.1,5.00,000.00,030.1,029.3,000.0,038.5,031.9,017.1,0000.0,0003.47,0011.98,0002.27
2024-05-30 12:57:00,SystemResetWarning,0830.1,5.01,000.00,030.1,029.3,000.0,038.5,031.9,017.3,0000.0,0003.49,0012.66,0002.27
2024-05-30 12:58:00,SystemResetWarning,0830.1,5.00,000.00,030.1,029.3,000.0,038.5,031.9,017.0,0000.0,0003.49,0012.91,0002.26
2024-05-30 12:59:00,SystemResetWarning,0830.0,5.01,000.00,030.1,029.3,000.0,038.5,031.9,017.0,0000.0,0003.45,0013.13,0002.26
